Temperature
7 8 8 8 8 8 8 8 9 9 9 8 9 9 10 10 10 10 10 10 9 9 9 9 9 9 10 10 10 10 10 10 10 10 10 10 10 10 10 11 11 11 11 11
8 7 7 7 7 7 7 8 8 9 8 8 8 9 10 10 10 10 10 9 9 9 8 8 8 9 9 9 9 10 10 10 10 10 10 10 10 10 10 10 10 10 10 10
7 7 7 7 7 7 7 8 8 8 8 8 8 10 11 11 10 9 9 9 9 9 8 8 8 8 8 9 9 9 9 9 9 9 9 9 9 9 9 10 10 10 10 10
7 7 7 7 7 7 8 8 7 7 7 8 8 10 11 10 10 10 9 9 9 8 8 8 8 8 8 8 9 9 9 9 9 9 9 9 9 9 9 9 9 9 9 9
6 6 6 6 7 7 7 7 7 7 7 7 8 8 11 10 10 10 10 9 8 8 8 8 8 8 8 8 8 8 8 8 9 9 9 9 9 9 9 9 9 9 9 9
6 5 6 6 6 6 6 6 7 7 7 7 8 8 10 10 10 10 10 9 8 8 7 7 7 7 8 8 8 8 8 8 8 8 8 8 8 8 8 8 8 8 8 9
6 6 5 5 6 6 6 7 8 8 8 9 8 8 10 10 10 9 9 9 8 7 7 7 7 7 7 7 8 7 7 8 7 7 7 7 8 8 8 8 8 8 8 8
7 7 6 5 6 6 6 7 7 8 9 10 8 8 10 10 9 8 8 8 7 7 7 7 6 6 7 7 7 7 7 7 7 7 7 7 7 7 7 8 8 8 8 8
6 6 5 5 5 6 6 6 6 6 6 7 9 9 10 9 8 8 8 7 7 7 6 6 6 6 6 6 6 7 7 7 7 7 7 7 7 7 7 7 7 7 7 7
5 5 5 5 5 5 6 6 6 6 7 8 9 10 10 9 8 8 7 7 6 6 6 6 6 6 6 6 6 6 6 7 7 7 7 7 7 7 7 6 6 7 7 7
4 4 5 5 5 5 5 5 5 6 6 8 9 10 10 8 8 8 7 6 6 5 5 5 5 5 5 5 6 6 6 6 6 6 6 6 6 6 6 6 6 6 6 6
4 4 5 5 4 4 4 5 5 6 5 6 8 9 8 7 7 7 6 6 5 5 5 5 4 4 5 5 5 5 5 6 6 6 6 5 6 6 6 6 6 6 6 6
3 3 5 6 5 3 3 4 4 4 5 5 7 9 7 7 6 6 5 5 4 4 4 4 4 4 4 4 5 5 5 5 5 5 5 5 5 5 5 5 5 5 5 5
3 3 4 7 6 5 3 3 3 3 5 5 6 8 8 7 6 5 4 4 3 3 4 3 3 3 3 4 4 4 4 5 5 4 5 5 4 5 5 5 5 5 5 5
2 3 2 3 3 3 3 3 3 3 4 5 6 6 7 6 5 4 4 3 3 3 3 3 3 3 3 3 4 4 4 4 4 4 4 4 4 4 4 4 4 4 4 4
1 2 1 2 3 2 2 3 3 3 4 4 5 5 6 5 4 3 3 3 3 3 3 2 2 2 3 3 3 3 4 4 4 4 4 3 4 4 4 3 3 4 4 4
1 0 2 4 3 2 4 4 3 3 3 4 5 6 5 4 3 3 2 2 2 2 2 2 2 2 3 3 3 3 3 3 3 3 3 3 3 3 3 3 3 3 3 3
-1 0 1 3 3 4 6 3 3 3 3 3 4 4 4 3 3 2 2 2 2 2 2 2 2 2 2 2 3 3 3 3 3 3 3 2 2 3 2 3 2 2 2 2
0 0 1 2 3 5 5 3 2 3 4 3 3 3 3 2 2 3 2 2 2 2 2 2 2 2 2 2 2 2 2 2 2 2 2 2 2 2 2 2 2 2 2 2
-1 -1 1 1 3 5 6 3 1 2 4 3 2 2 1 1 3 4 2 2 2 2 1 1 1 1 2 1 1 2 2 1 1 2 2 1 1 1 1 1 2 2 1 1
-1 -1 -0 1 2 5 4 1 1 4 5 2 1 1 0 1 2 2 1 1 1 1 1 1 1 1 1 1 1 1 1 1 1 1 1 1 1 1 1 1 1 1 1 1
0 0 -0 1 2 4 2 1 2 3 1 1 1 0 0 0 1 1 1 1 1 1 1 1 1 1 1 0 0 0 0 0 0 0 0 0 0 0 0 0 0 0 0 0
1 1 2 2 4 2 0 1 1 1 0 0 0 0 -0 -0 -0 -0 -0 -0 -0 -0 0 0 0 0 0 -0 -0 -0 -0 -0 -0 -0 -0 -0 -0 -0 -0 -0 -0 -0 -0 -1
-0 -2 -0 -0 1 0 -1 -0 0 0 0 0 0 -0 -0 -0 -0 -0 -0 -0 -0 -0 -0 -0 -0 -0 -1 -1 -1 -1 -1 -1 -1 -1 -1 -1 -1 -1 -1 -1 -1 -1 -1 -1
1 -1 -1 -0 1 -0 -0 -0 0 0 0 -0 0 -0 -0 -1 -0 -1 -1 -1 -1 -1 -1 -1 -1 -1 -1 -1 -1 -1 -1 -1 -1 -1 -1 -1 -1 -1 -1 -1 -1 -1 -1 -2
-1 -1 0 2 2 1 1 1 0 -0 -0 -0 -0 -0 -1 -1 -1 -1 -1 -1 -1 -1 -1 -1 -1 -2 -2 -2 -2 -2 -1 -1 -2 -2 -2 -2 -2 -2 -2 -2 -2 -2 -2 -2
Wind_Speed
1 2 4 5 6 5 5 7 9 9 6 7 12 15 13 10 10 11 10 10 9 10 8 7 6 6 5 6 7 8 8 7 5 4 4 4 4 4 4 4 6 6 6 6
3 3 4 3 4 4 6 7 8 7 5 7 11 15 13 10 11 10 10 10 9 8 8 7 6 5 6 7 7 8 8 7 7 6 6 4 4 4 4 4 5 6 6 6
3 1 3 4 4 5 7 8 8 8 8 6 8 9 8 8 8 8 8 8 8 8 9 7 6 6 6 6 7 7 7 7 7 7 5 4 3 3 3 4 5 6 6 7
2 3 4 4 4 5 6 5 7 7 6 4 4 6 7 7 8 7 7 6 7 7 7 7 6 6 7 7 6 6 6 6 6 7 8 8 6 6 5 5 5 5 6 6
2 2 3 4 5 5 4 4 6 6 5 6 6 6 7 6 8 8 8 7 7 6 6 5 5 6 6 6 5 5 6 6 7 7 8 8 7 6 4 5 5 5 5 6
3 2 3 4 4 4 3 3 4 4 4 6 6 7 7 5 7 7 7 7 6 5 5 5 4 4 5 4 4 5 5 6 6 7 8 9 8 7 6 6 6 5 4 5
2 3 3 2 3 2 2 2 2 2 3 5 3 6 8 6 5 6 7 7 5 4 4 4 5 5 5 5 5 4 5 6 6 7 7 8 8 8 9 8 7 6 5 5
2 3 3 3 3 3 4 3 3 3 5 5 4 8 6 4 4 5 5 5 4 4 4 4 5 6 6 5 5 5 6 6 6 7 7 7 7 6 6 8 7 7 6 5
3 3 1 3 3 4 3 4 3 3 4 6 6 6 8 5 5 4 4 4 4 5 5 5 5 6 5 5 6 6 6 5 5 6 7 7 7 7 7 7 6 5 5 5
2 3 3 2 3 3 4 3 3 3 4 6 7 8 6 4 4 4 5 5 5 6 6 5 5 5 4 4 5 4 5 5 5 5 5 5 7 7 7 6 7 6 6 5
2 3 2 3 5 5 4 4 4 3 4 5 7 6 1 3 4 5 5 6 6 6 6 5 5 4 4 4 4 4 4 4 4 4 4 5 6 6 6 6 6 6 5 6
3 2 4 5 4 4 6 6 7 5 5 6 6 7 1 3 4 5 6 7 7 7 5 5 5 5 4 4 4 4 4 4 4 4 4 5 5 5 5 6 6 6 6 6
3 3 2 3 3 4 5 6 7 6 5 7 8 8 2 5 6 6 7 8 7 6 5 5 5 4 4 4 4 4 4 4 3 3 4 4 5 5 6 6 6 6 6 6
3 4 6 8 5 3 6 8 9 9 7 9 13 14 11 9 8 8 8 8 7 6 5 5 5 5 5 4 4 4 4 3 3 3 3 4 5 5 5 5 6 6 6 6
3 5 6 10 9 8 10 11 12 14 14 12 13 14 15 10 8 8 7 7 7 6 6 5 5 5 5 5 4 4 4 4 3 3 4 4 4 4 4 4 4 4 5 5
2 3 4 7 7 9 12 14 14 15 14 16 16 17 12 9 7 7 7 7 7 6 7 6 6 5 5 5 4 4 4 4 4 4 4 3 3 3 3 3 3 3 4 4
4 3 3 5 5 7 10 11 13 11 11 12 14 13 8 8 8 8 8 7 6 6 7 7 6 5 5 5 5 4 4 4 3 2 2 2 3 3 3 3 3 3 3 4
5 4 3 4 3 7 4 0 7 11 12 13 12 11 9 10 9 8 7 6 7 7 7 6 6 6 5 5 4 4 4 3 2 1 1 1 2 2 2 2 2 3 3 3
6 5 3 3 5 9 6 2 4 7 9 9 11 11 10 8 7 7 5 6 7 6 6 5 5 5 5 4 4 3 3 3 3 2 2 2 2 2 2 2 3 3 3 3
3 4 4 4 5 6 3 1 1 3 7 2 5 7 6 4 5 6 4 6 6 5 4 4 4 4 4 3 3 2 3 3 3 3 3 3 2 2 2 3 3 2 3 2
4 4 7 7 7 8 2 1 3 4 4 3 3 4 3 4 6 6 6 6 5 5 5 4 4 4 4 3 2 3 3 4 4 3 3 2 2 2 2 2 2 2 2 2
7 6 7 6 7 7 2 4 4 4 4 3 4 3 4 5 6 6 5 5 5 5 5 4 4 4 4 3 2 3 4 4 3 3 2 2 2 1 2 2 2 1 2 2
8 6 5 7 6 2 4 4 3 3 4 4 4 4 4 4 5 5 5 5 5 5 5 4 4 4 4 4 3 4 4 3 3 2 2 2 2 1 1 1 1 1 1 1
5 3 4 6 8 6 6 6 5 4 5 5 5 5 4 5 5 5 5 5 5 5 5 4 4 4 4 4 4 4 4 3 2 2 2 2 1 1 1 1 1 1 2 2
5 6 5 7 8 7 6 7 6 5 5 5 5 5 5 5 5 5 5 5 5 4 4 3 3 4 5 4 4 4 3 2 2 2 2 2 1 1 1 1 1 1 1 2
6 7 7 7 5 5 6 4 4 5 6 6 6 6 5 5 6 6 5 5 5 5 4 4 4 4 5 4 4 4 3 2 2 2 2 2 1 1 1 1 1 2 1 1
Wind_Direction
129 192 209 215 217 237 251 258 267 273 280 276 262 264 264 259 252 249 248 248 249 255 253 246 244 239 231 228 218 206 207 206 200 201 194 194 208 211 202 202 199 197 196 199
181 218 228 223 218 234 249 260 271 280 285 277 273 271 262 249 245 245 246 249 248 249 248 246 239 235 233 227 225 216 213 209 209 210 199 206 211 212 213 207 206 202 200 201
197 228 210 213 226 237 247 250 265 283 302 270 281 271 249 246 241 245 246 245 248 247 242 239 237 236 233 230 227 220 214 211 217 212 195 196 199 201 212 215 213 212 207 205
221 242 216 221 242 242 255 256 264 275 288 286 287 277 258 251 246 245 245 245 252 257 247 236 241 244 241 236 233 225 217 216 218 208 206 204 208 214 223 222 222 214 210 209
214 221 221 237 252 247 254 284 265 262 262 272 256 259 264 248 252 252 247 246 250 256 251 245 246 246 246 240 232 230 225 220 216 211 211 211 217 223 220 221 223 218 212 211
232 233 239 247 253 238 248 256 253 245 246 256 245 244 266 246 250 258 252 253 252 254 254 262 277 280 261 248 238 234 230 225 217 216 217 218 217 214 214 221 223 221 218 215
239 220 215 232 239 201 227 245 276 248 240 254 235 243 258 262 262 259 255 255 260 264 263 274 287 290 275 251 239 240 233 227 221 220 222 222 220 216 215 219 224 221 220 222
238 241 205 210 224 234 225 229 236 263 267 278 248 248 262 278 289 281 271 268 271 274 279 284 285 279 271 260 241 237 235 237 232 226 227 223 222 222 222 220 222 221 220 224
226 243 204 225 232 225 208 212 243 258 277 273 257 263 277 272 289 297 292 291 285 288 292 292 290 282 268 263 252 240 242 245 243 238 233 225 221 222 225 224 222 221 217 219
215 251 248 243 211 214 235 198 201 222 255 267 269 261 257 257 265 280 289 288 291 296 298 297 294 283 273 270 273 264 254 251 249 246 239 230 222 219 222 224 224 221 217 213
201 227 239 219 219 222 201 204 215 227 256 261 273 267 259 256 265 269 277 284 294 297 298 298 296 283 276 278 280 278 275 273 263 250 245 238 229 219 220 225 225 221 220 216
190 217 245 240 247 253 234 225 212 229 239 245 267 274 12 293 291 284 290 298 297 290 291 292 293 287 284 283 282 283 282 278 273 265 250 244 233 221 218 226 227 220 219 221
168 193 250 238 212 208 227 227 224 236 246 242 250 264 298 315 315 313 312 313 308 302 305 307 302 295 292 293 289 286 284 278 280 273 257 243 236 227 221 224 227 220 218 222
192 213 232 253 279 234 242 235 224 222 236 247 248 266 287 302 311 315 317 313 311 311 308 306 303 301 295 292 290 293 294 287 273 260 251 242 236 232 225 223 224 219 214 218
201 235 244 262 271 262 254 246 228 225 235 247 261 266 278 291 297 304 309 310 310 311 307 304 301 301 299 295 296 297 296 292 282 263 249 246 245 239 231 226 226 221 216 218
201 232 251 265 257 260 264 254 238 236 241 249 265 271 277 290 294 301 304 303 301 303 305 306 303 301 301 300 297 296 303 304 289 270 253 254 250 239 229 230 229 223 218 214
190 193 234 264 284 283 262 242 224 228 232 236 248 262 291 293 287 290 296 296 296 298 302 306 302 297 300 300 296 297 302 304 296 275 265 259 247 238 232 217 216 213 213 210
187 196 228 271 278 250 260 152 220 231 244 239 254 278 283 282 285 279 277 283 294 299 301 301 301 301 304 305 303 309 311 309 296 277 279 285 261 236 221 203 213 219 211 204
207 199 215 235 258 271 269 231 208 228 258 240 252 271 289 303 298 278 272 285 288 296 302 300 301 303 308 308 307 319 316 317 316 296 291 287 275 256 231 218 222 223 212 206
180 200 216 221 246 257 279 148 200 227 262 249 251 271 292 302 282 287 304 302 301 310 316 314 311 312 315 314 315 318 314 309 307 302 291 289 277 255 243 239 233 224 211 205
175 196 214 226 243 265 295 133 176 224 285 329 267 261 260 255 277 305 310 306 309 313 319 319 311 313 317 321 322 312 309 301 302 302 286 282 281 264 248 245 240 220 199 193
190 190 202 203 225 252 138 152 205 271 319 299 281 264 260 277 297 306 310 313 314 317 320 318 313 315 319 320 310 301 300 307 314 315 303 296 286 271 236 223 223 205 176 173
211 208 208 209 229 316 182 220 267 294 288 295 295 291 276 281 291 301 306 307 307 309 311 310 307 311 315 313 304 297 306 316 318 319 318 317 326 336 318 230 196 177 176 182
220 208 225 253 264 270 259 261 272 271 279 293 295 292 286 284 290 296 297 297 300 304 304 305 305 305 307 308 300 294 303 309 304 308 315 320 329 339 340 316 240 200 198 204
218 187 224 255 274 288 261 247 255 266 278 289 295 292 283 282 286 288 290 292 294 299 302 298 291 293 299 305 303 302 300 295 290 298 306 312 318 315 321 321 319 281 266 234
210 206 216 248 254 253 275 269 253 258 269 276 284 291 288 279 278 283 286 289 293 297 301 299 295 294 297 301 303 305 300 282 273 282 290 296 305 306 306 309 338 5 318 302
Height
1517 1517 1515 1514 1516 1515 1515 1513 1510 1508 1510 1510 1504 1499 1497 1498 1497 1495 1494 1493 1493 1492 1492 1493 1493 1493 1494 1495 1497 1497 1499 1500 1502 1503 1504 1506 1507 1509 1510 1511 1513 1514 1516 1518
1515 1515 1516 1517 1517 1517 1515 1514 1509 1507 1509 1508 1502 1495 1492 1493 1492 1491 1490 1490 1489 1489 1489 1489 1489 1490 1490 1491 1492 1494 1495 1496 1497 1499 1501 1503 1504 1505 1506 1507 1509 1511 1512 1514
1512 1515 1516 1516 1515 1515 1514 1512 1508 1508 1507 1505 1502 1489 1485 1486 1488 1488 1487 1486 1486 1486 1485 1486 1486 1486 1487 1488 1488 1489 1490 1492 1494 1496 1497 1499 1500 1501 1502 1504 1505 1506 1508 1510
1514 1515 1515 1514 1513 1512 1509 1510 1510 1509 1507 1501 1502 1489 1479 1481 1481 1481 1482 1483 1483 1483 1482 1483 1483 1483 1484 1484 1485 1485 1486 1488 1489 1491 1493 1494 1494 1495 1497 1499 1501 1502 1504 1505
1513 1515 1514 1513 1512 1513 1510 1511 1511 1509 1507 1504 1499 1495 1475 1477 1475 1475 1478 1479 1479 1480 1480 1479 1479 1480 1480 1481 1481 1482 1483 1484 1486 1487 1489 1490 1491 1492 1493 1495 1496 1498 1499 1500
1514 1516 1515 1513 1513 1513 1513 1512 1510 1508 1505 1500 1495 1491 1474 1471 1472 1472 1474 1476 1476 1477 1477 1476 1476 1476 1477 1478 1478 1479 1479 1479 1481 1483 1484 1485 1486 1487 1489 1490 1492 1493 1494 1495
1512 1513 1514 1514 1511 1512 1512 1509 1502 1498 1496 1488 1492 1489 1474 1469 1471 1472 1472 1473 1473 1474 1473 1473 1473 1472 1473 1473 1474 1475 1475 1476 1477 1479 1479 1480 1482 1483 1484 1486 1487 1488 1489 1489
1508 1506 1511 1512 1511 1510 1510 1508 1505 1498 1488 1480 1488 1481 1468 1470 1471 1472 1472 1471 1472 1472 1472 1471 1471 1470 1469 1469 1470 1471 1471 1471 1472 1473 1474 1475 1477 1478 1479 1481 1482 1483 1484 1485
1507 1506 1511 1512 1511 1511 1509 1507 1508 1506 1502 1494 1478 1474 1469 1468 1469 1470 1470 1470 1469 1470 1469 1468 1468 1467 1467 1466 1466 1467 1467 1467 1467 1468 1469 1470 1472 1473 1475 1476 1478 1478 1479 1480
1512 1511 1510 1511 1511 1511 1510 1508 1509 1505 1498 1484 1472 1468 1463 1466 1467 1468 1469 1468 1468 1468 1467 1466 1465 1464 1463 1463 1462 1463 1463 1463 1462 1463 1464 1465 1467 1468 1470 1472 1472 1473 1474 1476
1513 1512 1509 1509 1507 1506 1509 1509 1507 1503 1499 1487 1474 1463 1462 1465 1466 1466 1467 1467 1466 1465 1464 1463 1462 1461 1460 1460 1459 1459 1459 1459 1458 1459 1459 1461 1462 1463 1465 1466 1467 1468 1469 1471
1512 1511 1506 1506 1508 1508 1507 1504 1504 1501 1498 1494 1481 1468 1465 1466 1466 1467 1466 1466 1464 1463 1462 1461 1460 1459 1458 1456 1456 1455 1455 1455 1455 1455 1456 1456 1457 1458 1460 1461 1462 1464 1465 1466
1511 1512 1503 1496 1504 1508 1506 1504 1504 1504 1499 1492 1483 1467 1465 1466 1466 1467 1466 1465 1463 1461 1459 1459 1458 1456 1455 1454 1453 1452 1451 1451 1451 1451 1452 1452 1453 1454 1455 1457 1458 1459 1460 1461
1510 1509 1504 1492 1488 1496 1500 1500 1502 1502 1494 1486 1478 1466 1463 1464 1465 1466 1465 1464 1461 1459 1458 1456 1455 1454 1453 1451 1451 1449 1449 1448 1448 1448 1448 1448 1449 1449 1450 1452 1454 1455 1456 1457
1509 1506 1505 1501 1499 1499 1496 1495 1496 1495 1488 1483 1471 1471 1463 1465 1467 1466 1465 1462 1460 1458 1457 1455 1453 1452 1450 1449 1448 1447 1447 1446 1445 1445 1444 1444 1445 1446 1447 1448 1449 1450 1451 1452
1508 1506 1505 1499 1497 1497 1493 1488 1489 1488 1485 1481 1476 1470 1464 1466 1466 1464 1463 1461 1459 1457 1455 1453 1452 1450 1448 1447 1445 1445 1444 1443 1442 1441 1440 1441 1441 1442 1443 1444 1445 1446 1447 1448
1506 1507 1502 1489 1494 1493 1480 1476 1480 1480 1477 1476 1471 1464 1464 1464 1463 1462 1461 1459 1457 1455 1454 1452 1450 1448 1446 1445 1443 1442 1441 1440 1438 1437 1437 1437 1438 1439 1439 1440 1441 1442 1443 1444
1505 1505 1502 1494 1493 1484 1467 1473 1473 1473 1470 1470 1467 1464 1463 1462 1461 1460 1459 1457 1455 1454 1452 1450 1448 1446 1445 1443 1442 1440 1439 1437 1436 1435 1435 1435 1435 1435 1435 1436 1437 1438 1439 1440
1501 1502 1499 1494 1484 1471 1467 1471 1472 1472 1465 1464 1464 1462 1461 1460 1458 1456 1455 1454 1453 1452 1451 1449 1447 1445 1443 1441 1440 1438 1437 1435 1434 1433 1432 1432 1432 1432 1432 1433 1434 1435 1436 1436
1501 1502 1499 1494 1484 1469 1462 1469 1471 1472 1462 1461 1461 1460 1460 1459 1455 1452 1453 1452 1451 1450 1448 1447 1445 1443 1441 1440 1438 1437 1435 1434 1432 1431 1430 1430 1430 1430 1430 1431 1432 1432 1433 1433
1499 1498 1496 1490 1482 1466 1466 1469 1471 1466 1458 1460 1459 1458 1458 1457 1455 1454 1451 1450 1449 1448 1446 1445 1443 1442 1440 1439 1437 1435 1433 1432 1431 1430 1429 1428 1428 1428 1428 1428 1429 1429 1429 1430
1485 1486 1488 1485 1481 1468 1467 1468 1466 1461 1460 1459 1457 1457 1456 1455 1453 1451 1450 1448 1447 1445 1444 1443 1441 1440 1439 1437 1435 1433 1432 1431 1430 1428 1427 1426 1426 1425 1425 1426 1426 1427 1427 1428
1479 1476 1473 1473 1466 1464 1464 1463 1462 1461 1459 1457 1456 1454 1454 1452 1451 1449 1448 1447 1446 1444 1443 1441 1439 1438 1437 1435 1434 1432 1431 1430 1428 1427 1426 1425 1424 1424 1424 1424 1424 1424 1425 1425
1474 1476 1474 1471 1463 1462 1461 1460 1459 1459 1457 1456 1455 1453 1452 1450 1449 1448 1446 1445 1443 1442 1440 1439 1437 1436 1434 1433 1432 1431 1430 1428 1427 1426 1425 1424 1423 1422 1422 1422 1422 1422 1423 1423
1466 1471 1469 1465 1461 1459 1457 1457 1457 1456 1455 1454 1452 1451 1450 1448 1447 1445 1444 1443 1441 1440 1438 1436 1435 1434 1433 1432 1430 1429 1428 1427 1426 1425 1424 1423 1422 1421 1420 1420 1420 1420 1421 1421
1463 1463 1461 1455 1455 1456 1454 1453 1453 1453 1452 1451 1450 1448 1447 1446 1445 1443 1441 1440 1439 1437 1436 1434 1433 1432 1431 1429 1428 1427 1426 1425 1424 1423 1422 1421 1420 1419 1419 1418 1418 1418 1419 1419